Location: Bosco
(44.4500°N, 10.0333°E)
Time: 17:26:38
(UTC+00:00)

Daily predictions for brighter satellites

Satellite Brightness Start Highest point End
(mag) Time Altitude Azimuth Time Altitude Azimuth Time Altitude Azimuth
Cosmos 1378 Rocket 3.6 19:39:18 10° S 19:43:43 85° E 19:48:09 10° N
Iridium 4 Rocket 4.2 19:38:30 10° N 19:44:22 73° W 19:50:12 10° S
ERBS 2.0 19:43:05 10° NW 19:46:07 88° NE 19:49:08 10° SE
Cosmos 1437 Rocket 3.4 19:42:17 10° NNW 19:46:08 59° W 19:50:04 10° S
SPOT 3 Rocket 4.2 19:42:52 10° SE 19:47:40 40° ENE 19:52:31 10° N
PSLV R/B 3.9 19:43:35 10° NNE 19:47:43 78° ESE 19:51:51 10° S
MOS 1 4.4 19:42:04 10° SSE 19:47:46 88° ENE 19:53:30 10° NNW
Cosmos 1674 Rocket 3.7 19:44:35 10° S 19:48:54 81° W 19:53:18 10° N
ATLAS 2AS CENTAUR R/B 4.2 19:43:10 10° NNW 19:49:16 28° NNE 19:55:01 10° E
Meteor 1-16 Rocket 4.3 19:43:51 10° NNW 19:49:27 85° W 19:54:50 10° S
Cosmos 2251 Rocket 3.8 19:44:49 10° NNW 19:50:07 60° ENE 19:55:24 10° SE
Lacrosse 5 rocket 3.5 19:47:48 10° NNW 19:50:30 18° NNE 19:53:19 10° ENE
Cosmos 1656 Rocket 3.7 19:49:57 10° NNW 19:55:26 84° WSW 20:00:58 10° SSE
NOSS 3-4 (A) 4.1 19:48:41 10° NW 19:55:38 70° NE 20:03:32 10° SE
NOSS 3-4 (C) 4.1 19:48:46 10° NW 19:55:44 70° NE 20:03:35 10° SE
Cosmos 1238 Rocket 3.9 19:50:33 10° N 19:55:45 78° W 20:01:48 10° S
CZ-4B R/B 0.9 19:53:19 10° NNE 19:56:12 71° ESE 19:59:04 10° S
Cosmos 1553 Rocket 4.2 19:50:18 10° S 19:56:38 87° W 20:03:06 10° N
USA 306 4.2 19:54:27 10° WNW 19:58:04 30° SW 20:01:41 10° SSE
Cosmos 614 Rocket 4.3 19:55:26 10° NNW 20:00:38 66° WSW 20:05:47 10° S
USA 234 4.4 19:54:52 10° E 20:00:49 38° NNE 20:06:45 10° NW
Atlas Centaur 2 3.4 20:04:17 10° SSW 20:05:52 12° S 20:07:23 10° SSE
Meteor 2-10 Rocket 3.5 20:03:14 10° N 20:08:19 66° ENE 20:13:16 10° SSE
Okean 1 Rocket 3.3 20:04:25 10° NNW 20:08:55 76° W 20:13:21 10° S
APEX 4.2 20:03:12 10° SSW 20:09:18 89° WNW 20:14:26 10° NNE
SL-14 R/B 3.6 20:06:05 10° SSW 20:09:54 67° W 20:13:48 10° N
Cosmos 407 Rocket 3.9 20:05:04 10° NNW 20:10:08 51° ENE 20:14:39 13° SE
S3M 4.0 20:04:08 10° S 20:10:20 76° E 20:16:31 10° N
USA 245 4.0 20:07:54 10° SSE 20:13:07 62° ENE 20:17:22 10° N
Cosmos 1455 Rocket 3.6 20:09:55 10° N 20:14:04 42° ENE 20:17:34 14° SE
MetOp-B 4.2 20:10:25 10° SSE 20:15:46 90° WSW 20:21:10 10° NNW
SPOT 5 3.3 20:12:47 12° SE 20:16:36 42° ENE 20:20:45 10° N
Cosmos 2056 Rocket 4.3 20:12:23 10° SSE 20:17:08 34° E 20:21:58 10° NE
Meteor 2-5 Rocket 4.1 20:12:08 10° SSE 20:17:21 45° E 20:22:37 10° NNE
SPOT 1/Viking Rocket 4.0 20:15:17 10° S 20:20:20 59° W 20:25:26 10° NNW
Cosmos 1271 Rocket 4.4 20:20:42 10° NNE 20:23:51 22° ENE 20:26:12 14° ESE
Cosmos 1025 Rocket 3.4 20:20:19 12° SSE 20:24:05 45° E 20:28:10 10° NNE
Cosmos 1300 3.0 20:21:46 10° NNW 20:25:31 65° W 20:29:15 10° S
ERS-1 Rocket 3.3 20:24:37 15° SE 20:28:41 52° ENE 20:33:34 10° N
Cosmos 1607 4.3 20:24:23 10° S 20:30:10 41° ESE 20:35:55 10° NE
Cosmos 1140 Rocket 3.5 20:28:33 10° NNW 20:33:48 87° ENE 20:37:57 16° SSE
Cosmos 1953 4.0 20:32:45 10° NNW 20:36:14 30° W 20:39:42 10° SSW
Cosmos 1943 4.1 20:31:13 10° SW 20:36:44 53° WNW 20:42:17 10° NNE
Cosmos 1023 Rocket 4.5 20:32:52 10° NNW 20:38:06 84° WSW 20:42:11 16° SSE
Cosmos 1745 Rocket 4.4 20:34:22 10° NNW 20:40:25 61° W 20:46:26 10° S
Cosmos 1603 4.5 20:35:07 10° SW 20:40:41 56° WNW 20:46:21 10° NNE
CZ-2C R/B 3.9 20:37:49 10° NNE 20:42:20 51° E 20:45:46 16° S
Lacrosse 5 3.3 20:38:44 10° NW 20:43:21 32° NNE 20:47:56 10° E
Cosmos 1975 Rocket 3.1 20:40:17 10° S 20:44:45 88° W 20:49:14 10° N
Helios 1A Rocket 2.8 20:43:49 19° SSE 20:46:38 85° ENE 20:50:45 10° NNW
Ariane Rocket 4.2 20:43:15 10° SSW 20:48:00 38° W 20:52:45 10° NNW
CARTOSAT-1 4.4 20:44:35 11° S 20:48:37 46° W 20:52:47 10° NNW
Cosmos 1954 Rocket 4.4 20:45:43 10° NNW 20:50:53 52° ENE 20:54:15 21° SE
Resurs 01 Rocket 3.8 20:49:15 10° SW 20:52:39 21° W 20:56:04 10° NW
Lacrosse 4 Rocket 4.0 20:53:48 10° WSW 20:57:07 23° NW 21:00:23 10° N
Tiangong 1.4 20:56:15 10° WSW 20:59:19 45° S 21:00:12 34° SE
DELTA 2 R/B (1) 4.3 20:57:00 10° W 21:02:06 37° SSW 21:04:45 24° SSE
Cosmos 2228 4.5 20:59:16 10° NNE 21:02:42 23° ENE 21:04:23 18° ESE
Cosmos 1703 4.4 21:03:35 24° ESE 21:04:32 27° E 21:07:49 10° NNE
Cosmos 1544 Rocket 3.5 21:00:58 10° N 21:05:19 77° E 21:07:38 27° SSE
Terra 1.8 21:02:52 23° SSE 21:05:53 89° E 21:10:40 10° NNW
FALCON 9 DEB 4.4 21:03:17 10° W 21:06:24 42° NNW 21:09:32 10° NE
SL-8 R/B 4.4 21:04:03 10° W 21:08:47 55° N 21:13:32 10° ENE
USA 267 3.3 21:03:15 10° NE 21:09:49 87° NW 21:16:23 10° SW
Meteor 1-24 Rocket 3.8 21:06:09 10° SSW 21:11:22 73° W 21:16:45 10° N
Cosmos 2315 Rocket 4.4 21:06:12 10° SSW 21:12:30 64° W 21:18:48 10° N
Cosmos 1455 2.1 21:09:15 10° N 21:13:04 85° E 21:14:42 33° SSE
Cosmos 2369 Rocket 4.5 21:11:02 10° WNW 21:14:13 16° W 21:17:26 10° SW
Cosmos 1697 Rocket 4.4 21:12:25 10° N 21:16:47 23° NE 21:20:59 11° E
Cosmos 1371 Rocket 4.3 21:12:18 10° SSW 21:17:29 69° WNW 21:22:46 10° NNE
Cosmos 1452 Rocket 4.1 21:17:03 27° SE 21:19:02 37° ESE 21:23:51 10° NE
Spot 2 Rocket 4.2 21:15:27 17° SSW 21:19:08 48° W 21:24:04 10° NNW
RESURS DK-1 4.5 21:17:52 10° N 21:20:48 18° NE 21:23:13 12° E
ARIANE 5 R/B 2.7 21:23:37 29° S 21:25:53 75° WSW 21:30:22 10° NNW
NOSS 2-1 (D) 4.3 21:24:10 10° NNW 21:28:41 62° NE 21:32:17 24° SE
Cosmos 2084 3.0 21:26:52 17° SW 21:29:42 84° SE 21:33:35 10° NE
Lacrosse 5 rocket 1.4 21:26:12 10° NW 21:30:06 68° NE 21:31:47 33° ESE
ASTEX 1 4.2 21:25:48 10° NNE 21:30:26 37° E 21:32:06 29° SE
Cosmos 2074 Rocket 4.0 21:32:14 10° N 21:38:35 88° E 21:42:02 29° S
ATLAS 2AS CENTAUR R/B 2.6 21:34:02 10° NW 21:41:11 90° ENE 21:44:52 29° SE
USA 234 3.3 21:38:51 22° ESE 21:43:21 84° NE 21:49:57 10° NW
Cosmos 1656 3.8 21:38:55 10° NNW 21:44:21 65° ENE 21:46:54 32° SE
GP-B 4.0 21:40:38 10° NNE 21:44:41 34° E 21:45:39 30° ESE
Cosmos 1833 Rocket 3.3 21:44:37 32° SE 21:46:05 37° ESE 21:51:13 10° NE
Nadezhda 1 Rocket 3.9 21:54:38 31° S 21:57:45 81° E 22:03:50 10° N
Cosmos 2154 Rocket 3.9 21:51:39 10° N 21:57:55 87° E 22:00:52 34° S
Cosmos 1271 Rocket 4.3 21:56:18 10° NNW 21:59:46 29° W 22:01:15 22° SW
Cosmos 2082 Rocket 3.6 21:59:43 20° ESE 22:00:19 21° E 22:04:25 10° NE
Cosmos 1741 Rocket 4.0 21:59:45 10° NNW 22:05:05 77° ENE 22:07:02 40° SSE
Cosmos 1610 Rocket 4.4 21:59:37 10° N 22:05:50 89° ENE 22:08:40 35° S
Cosmos 968 Rocket 4.5 22:21:28 10° N 22:26:19 39° ENE 22:28:29 27° ESE
COSMOS 2406 3.6 22:25:00 40° SE 22:26:21 47° ESE 22:31:52 10° NE
Cosmos 1606 Rocket 3.6 22:22:19 10° NNW 22:26:37 69° W 22:27:26 54° SSW
Lacrosse 5 1.8 22:21:36 10° NW 22:26:42 70° SW 22:27:56 50° SSE
H-2A R/B 3.6 22:22:48 10° NNE 22:26:56 54° E 22:27:16 52° ESE
NOSS 2-1 (E) 4.4 22:22:30 10° NW 22:27:21 58° SW 22:29:25 39° S
Meteor 1-11 4.2 22:30:33 43° SSE 22:32:18 67° E 22:37:52 10° NNE
SL-8 Rocket 4.1 22:30:53 10° N 22:37:09 69° E 22:39:30 39° SSE
Cosmos 1850 Rocket 4.3 22:32:39 10° NNW 22:37:43 53° WSW 22:39:02 42° SSW
Cosmos 1328 4.3 22:37:12 46° WSW 22:37:57 54° WNW 22:41:55 10° N
Cosmos 2369 4.3 22:33:00 10° NNW 22:38:35 50° ENE 22:41:13 29° ESE
Cosmos 2228 4.2 22:36:31 10° NNW 22:40:14 30° W 22:41:10 27° WSW
Cosmos 2218 Rocket 4.2 22:34:23 10° N 22:40:45 63° E 22:43:17 37° SE
Cosmos 2341 Rocket 4.0 22:36:18 10° N 22:42:41 89° ENE 22:45:04 41° S
Cosmos 1408 2.5 22:43:33 72° NNE 22:43:33 72° NNE 22:46:43 10° N
Terra 4.4 22:43:43 10° W 22:44:18 10° W 22:44:53 10° W
Cosmos 1825 3.0 22:46:54 38° E 22:46:54 38° E 22:50:09 10° NNE
ALOS 2 2.5 22:46:37 63° SSE 22:47:18 88° E 22:51:43 10° NNW
Cosmos 2366 rocket 4.1 22:44:05 10° N 22:50:24 73° E 22:52:47 40° SSE
SL-8 R/B 4.1 22:46:57 10° WNW 22:51:45 62° NNE 22:56:33 10° E
Cosmos 1726 Rocket 4.1 22:48:52 10° NNW 22:52:59 46° W 22:53:36 42° WSW
Cosmos 967 Rocket 4.4 22:51:24 35° SSW 22:54:20 84° ESE 23:00:51 10° NE
Cosmos 1980 Rocket 2.5 22:51:15 10° NNW 22:56:55 61° ENE 22:59:14 35° SE
RESURS DK-1 2.7 22:55:04 10° NW 22:59:03 50° WSW 22:59:03 50° WSW
Cosmos 1697 Rocket 2.7 22:55:41 10° NNW 23:01:16 66° WSW 23:02:41 48° S
Cosmos 1892 2.9 23:06:34 59° W 23:06:37 59° W 23:10:21 10° N
ADEOS Rocket 3.4 23:05:35 39° S 23:08:25 76° WSW 23:15:57 10° NNW
Lacrosse 5 rocket 3.5 23:06:05 10° W 23:07:17 15° W 23:07:17 15° W
ERS-2 2.1 23:06:04 10° NNE 23:09:26 76° NE 23:09:26 76° NE
USA 276 3.5 23:10:14 35° N 23:10:14 35° N 23:12:46 10° NE
In-Cosmos 22 Rocket 4.1 23:08:21 48° S 23:10:03 89° W 23:15:38 10° N
Cosmos 2084 Rocket 4.3 23:08:09 10° NNW 23:11:52 41° NE 23:13:11 31° E
Cosmos 1602 Rocket 3.8 23:15:24 52° ESE 23:15:44 54° E 23:19:58 10° NNE
Cosmos 2058 Rocket 3.6 23:12:02 10° NNW 23:16:14 45° W 23:16:43 43° WSW
Cosmos 2181 Rocket 4.0 23:15:18 40° SSW 23:17:35 71° W 23:23:46 10° N
Cosmos 1959 Rocket 4.5 23:13:19 10° NNW 23:19:25 72° W 23:21:25 44° SSW
Cosmos 1302 Rocket 4.2 23:21:10 42° SW 23:22:50 66° WNW 23:28:01 10° NNE
Cosmos 2278 4.1 23:19:16 10° NNW 23:24:56 61° ENE 23:27:30 32° SE
Cosmos 2322 Rocket 4.2 23:21:17 10° N 23:25:49 24° NE 23:30:20 10° ESE
USA 234 4.1 23:26:11 29° SW 23:26:48 29° SW 23:32:24 10° WNW
Cosmos 1833 Rocket 3.9 23:26:16 17° WSW 23:30:01 36° NW 23:35:10 10° N
ATLAS 2AS CENTAUR R/B 4.2 23:26:40 10° WNW 23:31:01 18° WSW 23:32:16 17° WSW
CZ-2D R/B 4.3 23:34:19 10° ENE 23:36:45 13° E 23:38:50 11° ESE
Geosat 4.4 23:35:56 31° SE 23:38:11 59° ENE 23:43:08 10° NNW
Okean 1-7 Rocket 4.2 23:39:49 41° WSW 23:40:35 45° WNW 23:44:53 10° N
Cosmos 1626 Rocket 3.9 23:42:03 46° WSW 23:42:40 50° WNW 23:46:53 10° N
Cosmos 2082 Rocket 2.5 23:41:32 35° SW 23:43:51 63° WNW 23:49:32 10° NNE
Cosmos 1821 Rocket 3.9 23:42:21 10° N 23:48:42 84° W 23:50:56 43° S
ATLAS 5 CENTAUR R/B 2.0 23:51:04 40° E 23:51:04 40° E 23:54:22 10° NE
Cosmos 1869 4.2 23:47:31 10° NNW 23:50:55 35° W 23:50:55 35° W
Cosmos 1825 Rocket 3.7 23:53:55 54° SE 23:54:29 59° E 23:58:45 10° NNE
